Regional Weather Roundup
Issued by NWS Jackson, KY

Home | Current Version | Previous Version | Text Only | Print | Product List | Glossary Off
Versions: 1 2 3 4 5 6 7 8 9 10 11 12 13 14 15 16 17 18 19 20 21 22 23 24 25 26 27 28 29 30 31 32 33 34 35 36 37 38 39 40 41 42 43 44 45 46 47 48 49 50

337
ASUS43 KJKL 240210
RWRJKL

EAST KENTUCKY HOURLY WEATHER ROUNDUP
NATIONAL WEATHER SERVICE JACKSON KY
900 PM EST THU NOV 23 2017

NOTE: "FAIR" INDICATES FEW OR NO CLOUDS BELOW 12,000 FEET WITH
NO SIGNIFICANT WEATHER AND/OR OBSTRUCTIONS TO VISIBILITY.

* THESE REPORTS ARE NOT UNDER NWS QUALITY CONTROL AND MAY NOT
  REPORT WEATHER SUCH AS PRECIPITATION AND FOG.

KYZ079-080-083-085-087-088-110-112-115-119-120-240300
...EASTERN KENTUCKY...

CITY           SKY/WX    TMP DP  RH WIND       PRES   REMARKS
JACKSON        CLEAR     41  18  39 E3        30.03R
LONDON         CLEAR     34  26  72 CALM      30.03S
SOMERSET*      CLEAR     34  27  75 CALM      30.05S
MONTICELLO*    CLEAR     30  26  85 CALM      30.05F
WILLIAMSBURG*  CLEAR     37  23  56 CALM      30.03S
MIDDLESBORO*   CLEAR     33  30  87 CALM      30.05S
HARLAN APT*    CLEAR     36  27  69 CALM      30.03F
PIKE CO APT*     N/A     40  21  46 SE3       30.02F
BIG SANDY APT* CLEAR     37  25  61 CALM      30.04S
MOREHEAD APT*  CLEAR     37  19  48 S3        30.05S
$$

KYZ035-036-041-042-044-050-067-078-099-240300
...CENTRAL KENTUCKY...

CITY           SKY/WX    TMP DP  RH WIND       PRES   REMARKS
MT STERLING*   CLEAR     32  27  80 CALM      30.04F
DANVILLE*      CLEAR     32  27  80 CALM      30.04F
LEXINGTON      CLEAR     36  24  62 SE5       30.03S WCI  32
FRANKFORT      CLEAR     32  24  72 CALM      30.02S
LOUISVILLE     CLEAR     41  25  53 CALM      30.04R
LEBANON*         N/A     37  23  56 CALM      30.03S
GLASGOW*       CLEAR     33  26  74 CALM      30.04R
BOWLING GREEN  CLEAR     37  27  67 CALM      30.05R
$$

KYZ091>093-OHZ055-061-077-WVZ005-015-034-035-042-240300
...SOUTHERN OHIO/WEST VIRGINIA...

CITY           SKY/WX    TMP DP  RH WIND       PRES   REMARKS
COVINGTON      CLEAR     36  25  64 S6        30.02S WCI  31
COLUMBUS       CLEAR     33  25  72 CALM      30.02S
DAYTON         CLEAR     37  25  61 S12       30.01S WCI  29
WILMINGTON     CLEAR     32  25  75 S5        30.00F WCI  27
HUNTINGTON     CLEAR     35  24  64 CALM      30.04S
CHARLESTON     CLEAR     32  23  69 SE3       30.03F
PINEVILLE*       N/A     29  21  72 MISG      30.08S
BECKLEY        CLEAR     32  17  54 S5        30.00F WCI  27
BLUEFIELD      CLEAR     37  11  34 W5        30.01S WCI  33
LOGAN CO APT*    N/A     39  21  48 CALM      30.02S
$$

VAZ002-007-008-TNZ017-027-036-066-071-240300
...SOUTHWEST VIRGINIA/EAST TENNESSEE...

CITY           SKY/WX    TMP DP  RH WIND       PRES   REMARKS
WISE*          CLEAR     37  23  56 CALM      30.02F
JONESVILLE*      N/A     32  28  86 CALM      30.05F
ABINGDON*      CLEAR     38  32  79 CALM      30.02S
BRISTOL        CLEAR     35  31  85 CALM      30.03S
MORRISTOWN*    MOCLDY    39  32  75 CALM      30.02F
SEVIERVILLE*   PTCLDY    37  32  81 CALM      30.03F
KNOXVILLE      CLEAR     42  35  76 CALM      30.02S
LAFOLLETTE*    CLEAR     34  32  93 CALM      30.06F
OAK RIDGE      CLEAR     38  34  85 CALM      30.04F
CROSSVILLE     CLEAR     37  25  61 CALM      30.03S
NASHVILLE      CLEAR     38  27  64 S6        30.04S WCI  33
$$

...KEY TO REMARKS...
VSB - VISIBILITY IN MILES
WCI - WIND CHILL INDEX
HX  - HEAT INDEX

$$




USA.gov is the U.S. government's official web portal to all federal, state and local government web resources and services.